Location: Limerick
(52.6800°N, 8.6400°W)
Time: 05:25:03
(UTC+00:00)

Sapphire - Visible Passes

Search period start: 01 November 2014 00:00
Search period end: 11 November 2014 00:00
Orbit: 785 x 797 km, 67.1° (Epoch: 31 October)

Date Brightness Start Highest point End Pass type
(mag) Time Alt. Az. Time Alt. Az. Time Alt. Az.
01 Nov ? 02:45:13 17° NE 02:45:13 17° NE 02:46:26 10° NE visible
01 Nov ? 04:25:58 35° N 04:25:58 35° N 04:29:54 10° NNE visible
01 Nov ? 06:06:43 13° NW 06:09:43 19° NNW 06:13:36 10° NE visible
02 Nov ? 02:15:42 11° NE 02:15:42 11° NE 02:15:53 10° NE visible
02 Nov ? 03:56:27 30° NNE 03:56:27 30° NNE 03:59:27 10° NNE visible
02 Nov ? 05:37:12 18° NW 05:38:57 21° NNW 05:43:00 10° NNE visible
03 Nov ? 03:26:55 23° NNE 03:26:55 23° NNE 03:29:00 10° NE visible
03 Nov ? 05:07:40 22° NNW 05:08:12 22° NNW 05:12:27 10° NNE visible
03 Nov ? 06:49:52 10° NW 06:53:35 18° N 06:57:18 10° NE visible
04 Nov ? 02:57:22 17° NE 02:57:22 17° NE 02:58:32 10° NE visible
04 Nov ? 04:38:06 24° NNW 04:38:06 24° NNW 04:41:55 10° NNE visible
04 Nov ? 06:19:08 10° NW 06:22:47 18° N 06:26:27 10° NE visible
05 Nov ? 02:27:47 11° NE 02:27:47 11° NE 02:28:04 10° NE visible
05 Nov ? 04:08:32 23° N 04:08:32 23° N 04:11:26 10° NNE visible
05 Nov ? 05:49:17 13° NW 05:52:00 18° N 05:55:40 10° NE visible
06 Nov ? 03:38:57 20° NNE 03:38:57 20° NNE 03:40:57 10° NNE visible
06 Nov ? 05:19:42 16° NNW 05:21:12 18° N 05:24:56 10° NE visible
06 Nov ? 07:02:20 10° NNW 07:06:35 22° NNE 07:10:49 10° ENE visible
07 Nov ? 03:09:21 16° NNE 03:09:21 16° NNE 03:10:30 10° NNE visible
07 Nov ? 04:50:06 19° NNW 04:50:25 19° N 04:54:15 10° NE visible
07 Nov ? 06:31:47 10° NNW 06:35:50 21° NNE 06:39:52 10° ENE visible
08 Nov ? 02:39:46 11° NNE 02:39:46 11° NNE 02:40:02 10° NNE visible
08 Nov ? 04:20:30 19° N 04:20:30 19° N 04:23:38 10° NNE visible
08 Nov ? 06:01:15 10° NNW 06:05:03 19° NNE 06:08:56 10° ENE visible
09 Nov ? 03:50:54 18° N 03:50:54 18° N 03:53:04 10° NNE visible
09 Nov ? 05:31:39 14° NNW 05:34:16 18° N 05:38:02 10° NE visible
10 Nov ? 03:21:18 15° NNE 03:21:18 15° NNE 03:22:32 10° NNE visible
10 Nov ? 05:02:03 16° NNW 05:03:29 18° N 05:07:10 10° NE visible
10 Nov ? 06:43:56 10° NNW 06:48:40 29° NNE 06:53:23 10° E visible
